CDT,Max TemperatureF,Mean TemperatureF,Min TemperatureF,Max Dew PointF,MeanDew PointF,Min DewpointF,Max Humidity, Mean Humidity, Min Humidity, Max Sea Level PressureIn, Mean Sea Level PressureIn, Min Sea Level PressureIn, Max VisibilityMiles, Mean VisibilityMiles, Min VisibilityMiles, Max Wind SpeedMPH, Mean Wind SpeedMPH, Max Gust SpeedMPH,PrecipitationIn, CloudCover, Events, WindDirDegrees
2011-10-1,81,63,45,37,34,32,68,37,18,30.24,30.17,30.12,10,10,10,22,8,25,0.00,0,,166
2011-10-2,89,69,50,38,35,32,52,29,16,30.20,30.09,30.00,10,10,10,26,14,33,0.00,0,,174
2011-10-3,91,73,55,46,41,35,47,31,18,30.14,30.06,30.01,10,10,10,21,15,37,0.00,0,,184
2011-10-4,88,70,53,43,40,37,64,35,17,30.14,30.06,29.99,10,10,10,22,12,28,0.00,0,,181
2011-10-5,75,66,57,56,47,37,80,53,37,30.08,29.98,29.89,10,10,4,30,16,37,0.07,2,Rain,172
2011-10-6,78,68,60,61,56,49,75,64,56,29.89,29.80,29.70,10,10,10,37,28,52,0.00,3,,165
2011-10-7,81,74,69,63,62,60,81,68,51,29.95,29.82,29.75,10,10,10,33,27,41,0.00,3,,160
2011-10-8,73,65,57,64,57,55,94,88,68,30.06,29.94,29.75,10,9,2,34,19,46,0.10,6,Rain-Thunderstorm,180
2011-10-9,57,51,44,57,51,45,100,95,88,30.13,30.09,30.02,10,6,1,14,5,,0.24,7,Rain,322
2011-10-10,66,55,44,55,50,45,100,91,65,30.12,30.05,29.93,10,6,0,18,5,,0.00,5,Fog,211
2011-10-11,73,64,55,60,55,53,96,77,53,29.91,29.81,29.70,10,10,10,23,16,30,0.13,1,Rain-Thunderstorm,178
2011-10-12,78,64,51,58,49,37,100,75,27,29.99,29.85,29.74,10,6,0,24,6,32,0.00,1,Fog,300
2011-10-13,75,58,42,44,39,31,89,55,21,30.08,29.98,29.87,10,10,10,13,7,,0.69,0,,235
2011-10-14,78,64,50,46,43,40,74,53,32,30.05,29.92,29.86,10,10,10,14,9,,0.00,0,,80
2011-10-15,82,65,48,50,42,32,66,47,28,30.12,30.02,29.92,10,10,10,17,8,22,0.00,0,,147
2011-10-16,77,65,50,50,46,41,77,54,31,29.97,29.93,29.88,10,10,10,16,11,,0.00,0,,344
2011-10-17,70,58,45,43,38,32,80,55,35,30.09,29.90,29.76,10,10,10,25,10,36,0.00,1,,21
2011-10-18,62,51,37,39,31,24,89,53,24,30.21,30.17,30.10,10,10,10,32,17,40,0.00,1,,336
2011-10-19,63,50,36,29,27,24,76,49,23,30.22,30.13,30.07,10,10,10,21,9,30,0.00,0,,328
2011-10-20,68,51,34,33,30,28,82,51,23,30.07,30.03,29.96,10,10,10,18,6,24,0.00,0,,172
2011-10-21,78,58,39,37,34,31,82,49,19,30.17,30.09,30.03,10,10,10,12,7,,0.00,0,,191
2011-10-22,78,57,39,52,45,36,89,69,40,30.07,30.02,29.95,10,10,10,16,4,23,0.00,0,,27
2011-10-23,84,62,43,47,40,32,97,60,16,30.10,30.05,29.99,10,10,5,10,5,17,0.00,0,,248
2011-10-24,86,65,44,43,37,31,79,40,14,30.13,30.01,29.88,10,10,10,32,12,41,0.00,0,,193
2011-10-25,87,74,57,47,39,30,54,35,13,29.86,29.82,29.77,10,10,10,28,20,36,0.00,0,,158
2011-10-26,60,50,43,41,37,33,71,57,44,30.15,30.01,29.86,10,10,10,25,15,33,0.00,3,,15
2011-10-27,48,40,30,37,35,28,93,82,50,30.25,30.17,30.10,10,10,6,20,12,28,0.01,5,Rain,2
2011-10-28,61,44,26,33,25,19,89,61,20,30.34,30.28,30.25,10,10,10,8,5,,0.00,0,,258
2011-10-29,68,48,30,37,32,25,88,57,27,30.23,30.07,29.91,10,10,10,28,11,37,0.00,0,,199
2011-10-30,66,52,37,35,30,24,82,48,20,30.19,30.12,29.92,10,10,10,18,7,28,0.00,0,,358
2011-10-31,77,56,36,43,35,28,86,51,19,30.18,30.05,29.90,10,10,10,23,10,29,0.00,0,,203